Flag for U.S.A. Weather past 2 weeks in Bridgewater, Massachusetts, U.S.A.

Now
65 °F

Fog.


Feels Like: 65 °F
Forecast: 66 / 87 °F
Wind: No wind

Location: Taunton Municipal Airport

Current Time: Aug 3, 2015 at 3:24:09 AM

Latest Report: Aug 3, 2015 at 3:01 AM


Visibility: 2 mi

Pressure: 29.85 "Hg

Humidity: 97%

Dew point: 64 °F

Location of BridgewaterLocation

Historic Weather in Bridgewater — Graph

°F

Bridgewater temperature yesterday

Maximum temperature yesterday: 85 °F (at 12:52 PM)
Minimum temperature yesterday: 56 °F (at 5:59 AM)
Average temperature yesterday: 73 °F

Past Weeks' High & Low Weather Summary

 TemperatureHumidityPressure
High94 °F (Jul 20, 2:52 PM)97% (Jul 24, 3:52 AM)30.05 "Hg (Jul 24, 3:52 AM)
Low53 °F (Jul 25, 4:03 AM)32% (Jul 22, 1:52 PM)29.54 "Hg (Jul 21, 6:52 PM)
Average74 °F73%29.84 "Hg
* Reported Jul 19 1:52 AM — Aug 3 1:52 AM, Bridgewater, Weather by CustomWeather, © 2015

Note: Actual official high and low records may vary slightly from our data, if they occured in-between our weather recording intervals... More about our weather records

Advertising

Bridgewater weather history for previous 24 hours

 ConditionsComfort  
Time TempWeatherWind HumidityBarometerVisibility
1:52 AM
Mon, Aug 3
69 °FClear.3 mph90%29.86 "Hg10 mi
12:52 AM68 °FClear.3 mph93%29.87 "Hg10 mi
11:52 PM
Sun, Aug 2
69 °FClear.3 mph90%29.87 "Hg10 mi
10:52 PM68 °FClear.3 mph87%29.88 "Hg10 mi
9:52 PM65 °FClear.3 mph87%29.91 "Hg10 mi
8:52 PM73 °FSunny.3 mph64%29.89 "Hg10 mi
7:52 PM76 °FSunny.6 mph54%29.87 "Hg10 mi
6:52 PM80 °FSunny.10 mph45%29.87 "Hg10 mi
5:52 PM83 °FSunny.8 mph43%29.88 "Hg10 mi
4:52 PM85 °FSunny.10 mph39%29.88 "Hg10 mi
3:52 PM85 °FSunny.9 mph37%29.87 "Hg10 mi
2:52 PM85 °FSunny.7 mph40%29.88 "Hg10 mi
1:52 PM85 °FSunny.12 mph37%29.89 "Hg10 mi
12:52 PM85 °FSunny.7 mph37%29.90 "Hg10 mi
11:52 AM84 °FSunny.6 mph37%29.91 "Hg10 mi
10:52 AM82 °FSunny.6 mph41%29.90 "Hg10 mi
9:52 AM79 °FSunny.3 mph45%29.90 "Hg10 mi
8:52 AM75 °FSunny.5 mph55%29.90 "Hg10 mi
7:52 AM71 °FSunny.3 mph66%29.89 "Hg10 mi
6:52 AM63 °FSunny.No wind90%29.87 "Hg10 mi
5:59 AM56 °FFog.No wind93%29.86 "Hg2 mi
4:59 AM57 °FFog.No wind93%29.84 "Hg1 mi
4:00 AM59 °FFog.No wind93%29.83 "Hg6 mi
Weather by CustomWeather, © 2015

See weather overviewHow to use our weather pages